GALAXY 34 (G-34)

Last updated on Mon Oct 14 2024 00:02:41 GMT+0000 (Coordinated Universal Time)

1 54027U 22128B 24287.47009220 .00000057 00000+0 00000+0 0 9990 2 54027 0.0151 199.6248 0001453 8.8342 214.3562 1.00270258 7649
UTC large
Height (km)
Speed (km/s)
/
Latitude / Longitude
Inclination (degrees)
Orbital Period (minutes)
Azimuth
Elevation
Range (km)
Doppler Factor

Next 0 passes for location: London (51.5072 / 0.1276)

Sorry there are no passes over London.